Weather History for Kars, Turkey

Change the Weather History Date:

Thursday, February 14, 2013

  Actual Average Record
Temperature  
Mean Temperature 10 °F -  
Max Temperature 25 °F 31 °F - ()
Min Temperature -5 °F 12 °F - ()
Degree Days  
Heating Degree Days 55    
Moisture  
Dew Point 11 °F    
Average Humidity 91    
Maximum Humidity 100    
Minimum Humidity 78    
Precipitation  
Precipitation 0.00 in 0.03 in - ()
Sea Level Pressure  
Sea Level Pressure 30.27 in    
Wind  
Wind Speed 0 mph ()    
Max Wind Speed 4 mph    
Max Gust Speed -    
Visibility 2.9 miles    
Events Fog    
T = Trace of Precipitation, MM = Missing Value Source: Averaged Metar Reports

Daily Weather History Graph

Daily Weather History Graph

Search for Another Location

Airport:

Trip Planner

Search our weather history database for the weather conditions in past years. The results will help you decide how hot, cold, wet, or windy it might be!

Date:

Astronomy

Feb. 14, 2013 Rise Set
Actual Time 6:02 AM EET 4:41 PM EET
Civil Twilight 5:34 AM EET 5:09 PM EET
Nautical Twilight 5:02 AM EET 5:41 PM EET
Astronomical Twilight 4:31 AM EET 6:13 PM EET
Moon 7:51 AM EET (2/14) 9:23 PM EET (2/14)
Length of Visible Light 11h 34m
Length of Day
10h 38m
Waxing Crescent, 19% of the Moon is Illuminated
Feb 14
Waxing Crescent
Feb 17
First Quarter
Feb 25
Full
Mar 4
Last Quarter
Mar 11
New

Hourly Weather History & Observations

Time (EET) Temp. Windchill Dew Point Humidity Pressure Visibility Wind Dir Wind Speed Gust Speed Precip Events Conditions
12:50 AM 3.2 °F - -0.4 °F 85% 30.27 in - Variable 1.2 mph - N/A   Clear
1:50 AM 1.4 °F - -0.4 °F 92% 30.27 in - Calm Calm - N/A   Clear
2:00 AM 2 °F - 2 °F 100%  in 6 mi Calm Calm - -  
2:50 AM 1.4 °F - -2.2 °F 85% 30.27 in - Calm Calm - N/A   Clear
3:50 AM -2.2 °F - -7.6 °F 78% 30.27 in - Calm Calm - N/A   Clear
4:50 AM -0.4 °F - -4.0 °F 85% 30.30 in - Calm Calm - N/A   Clear
5:50 AM -2.2 °F - -5.8 °F 85% 30.30 in 5.0 mi Calm Calm - N/A   Unknown
6:50 AM -2.2 °F - -5.8 °F 85% 30.33 in - Calm Calm - N/A   Clear
7:50 AM 1.4 °F - -2.2 °F 85% 30.33 in - Calm Calm - N/A   Clear
8:00 AM 1 °F - 1 °F 98%  in 6 mi Calm Calm - -  
8:20 AM 5.0 °F - 1.4 °F 85% 30.33 in 0.3 mi Calm Calm - N/A Fog Light Freezing Fog
8:50 AM 5.0 °F - 1.4 °F 85% 30.33 in 0.1 mi Calm Calm - N/A Fog Light Freezing Fog
9:50 AM 10.4 °F - 6.8 °F 85% 30.33 in 0.2 mi Calm Calm - N/A Fog Light Freezing Fog
10:50 AM 17.6 °F - 15.8 °F 93% 30.33 in 0.3 mi Calm Calm - N/A Fog Light Freezing Fog
11:50 AM 19.4 °F - 19.4 °F 100% 30.30 in 0.6 mi Calm Calm - N/A Fog Light Freezing Fog
12:50 PM 21.2 °F - 19.4 °F 93% 30.30 in 1.0 mi Variable 1.2 mph - N/A Fog Patches of Fog
1:50 PM 23.0 °F - 21.2 °F 93% 30.27 in 0.6 mi Calm Calm - N/A Fog Patches of Fog
2:00 PM 22 °F - 22 °F 100%  in 1 mi Calm Calm - - Fog Patches of Fog
2:50 PM 23.0 °F - 21.2 °F 93% 30.27 in 2.5 mi Calm Calm - N/A   Mostly Cloudy
3:50 PM 23.0 °F 18.4 °F 21.2 °F 93% 30.27 in 3.1 mi WNW 3.5 mph - N/A   Mostly Cloudy
4:50 PM 23.0 °F - 21.2 °F 93% 30.24 in 3.7 mi Calm Calm - N/A   Mostly Cloudy
5:50 PM 23.0 °F - 21.2 °F 93% 30.24 in 4.3 mi ENE 1.2 mph - N/A   Mostly Cloudy
6:50 PM 21.2 °F - 21.2 °F 100% 30.24 in 4.3 mi SSW 1.2 mph - N/A   Mostly Cloudy
7:50 PM 23.0 °F - 21.2 °F 93% 30.21 in 4.3 mi Calm Calm - N/A   Mostly Cloudy
8:00 PM 22 °F - 22 °F 98%  in 4 mi Calm Calm - -   Mist
8:50 PM 23.0 °F - 21.2 °F 93% 30.21 in 4.3 mi Calm Calm - N/A   Mostly Cloudy
9:50 PM 23.0 °F - 21.2 °F 93% 30.24 in 4.3 mi Calm Calm - N/A   Mostly Cloudy
10:50 PM 23.0 °F - 21.2 °F 93% 30.21 in 4.3 mi Variable 1.2 mph - N/A   Mostly Cloudy
11:50 PM 23.0 °F - 21.2 °F 93% 30.18 in 4.3 mi South 1.2 mph - N/A   Mostly Cloudy